[[{"header":{"parameterUnit":"m.s-1","parameterCategory":1,"la1":30.2991,"la2":30.254,"lo1":-89.0895,"lo2":-89.0444,"dy":0.0017,"dx":0.0017,"nx":28,"ny":28,"refTime":"2024-12-05T03:00:00:Z","depth":0,"parameterNumber":2,"parameterNumberName":"U-component_of_WINDS"},"data":[0,0,0,0,0,0,0,0,0,0,0,0,0,0,0,0,0,0,0,0,0,0,0,0,0,0,0,0,0,0,0,0,0,0,0,0,0,0,0,0,0,0,0,0,0,0,0,0,0,0,0,0,0,0,0,0,0,0,-1.5254,-1.5253,0,-1.5167,-1.5166,-1.5165,-1.5122,-1.5122,-1.5122,-1.5122,-1.5031,-1.5029,-1.5026,0,0,0,0,0,0,0,0,0,0,0,0,0,-1.5379,-1.5377,-1.5254,-1.5253,-1.5252,-1.5167,-1.5166,-1.5165,-1.5122,-1.5122,-1.5122,-1.5122,-1.5032,-1.5029,-1.5026,0,0,0,0,0,0,0,0,0,0,0,0,0,-1.5312,-1.5376,-1.5254,-1.522,-1.5216,-1.5167,-1.5166,-1.5164,-1.5122,-1.5122,-1.5122,-1.5122,-1.5033,-1.5029,-1.5026,-1.5004,0,0,-1.5015,-1.5013,0,0,0,0,0,0,0,0,-1.5316,-1.5307,-1.5226,-1.5222,-1.5218,-1.5155,-1.5177,-1.5111,-1.5122,-1.5157,-1.5122,-1.5122,-1.5072,-1.5065,-1.5049,-1.5,-1.4996,-1.5014,-1.5012,-1.5011,-1.501,0,0,0,0,0,0,0,-1.532,-1.5311,-1.5219,-1.5225,-1.522,-1.5208,-1.5198,-1.5164,-1.5116,-1.5154,-1.5151,-1.5141,-1.507,-1.5053,-1.5047,-1.4994,-1.5015,-1.5011,-1.5009,-1.5008,-1.4919,-1.4919,0,0,0,0,0,0,-1.5331,-1.5315,-1.5222,-1.5217,-1.5268,-1.5206,-1.5195,-1.5175,-1.5116,-1.5107,-1.5141,-1.514,-1.5059,-1.5051,-1.5043,-1.5011,-1.5011,-1.5007,-1.5005,-1.4919,-1.4919,-1.4919,0,0,0,0,0,0,-1.5334,-1.5323,-1.5226,-1.5265,-1.5252,-1.5204,-1.5182,-1.5174,-1.5156,-1.5106,-1.5097,-1.5133,-1.5058,-1.5048,-1.5013,-1.5008,-1.5006,-1.5002,-1.4919,-1.4919,-1.4919,-1.4949,0,0,0,0,0,0,-1.5338,-1.5324,-1.5317,-1.5265,-1.525,-1.5198,-1.5181,-1.5172,-1.515,-1.5147,-1.5096,-1.5087,-1.5058,-1.5019,-1.501,-1.5003,-1.5,-1.492,-1.4919,-1.4919,-1.4949,-1.495,-1.4951,0,0,0,0,0,-1.5342,-1.5329,-1.5316,-1.5305,-1.5239,-1.5198,-1.5189,-1.5156,-1.515,-1.5141,-1.5108,-1.5089,-1.501,-1.5016,-1.5005,-1.4997,-1.492,-1.4919,-1.4919,-1.4948,-1.495,-1.4951,0,0,0,0,0,0,-1.5381,-1.5322,-1.5307,-1.5277,-1.5243,-1.5191,-1.5179,-1.5159,-1.5126,-1.5124,-1.5083,-1.5072,-1.504,-1.5015,-1.5022,-1.4971,-1.4963,-1.496,-1.4989,-1.499,-1.4991,-1.4998,-1.4997,0,0,0,0,0,-1.5386,-1.5359,-1.5308,-1.5286,-1.527,-1.5227,-1.5208,-1.5185,-1.5148,-1.5133,-1.5099,-1.5063,-1.5029,-1.5008,-1.4975,-1.4945,-1.4932,-1.4934,-1.4935,-1.4937,-1.4935,-1.4914,-1.4913,-1.4917,-1.4917,-1.4917,0,0,-1.5397,-1.5361,-1.5346,-1.5293,-1.5264,-1.5235,-1.5216,-1.5187,-1.5164,-1.5129,-1.5093,-1.5066,-1.5023,-1.499,-1.4973,-1.4968,-1.493,-1.4936,-1.4938,-1.4935,-1.4913,-1.4913,-1.4913,-1.4917,-1.4917,-1.4917,0,0,-1.54,-1.5371,-1.5349,-1.532,-1.5276,-1.5247,-1.5241,-1.5192,-1.5172,-1.5136,-1.5108,-1.508,-1.5025,-1.4994,-1.4972,-1.4961,-1.4941,-1.4951,-1.4959,-1.4939,-1.4938,-1.4938,-1.4932,-1.4931,-1.495,-1.495,-1.495,0,-1.5419,-1.5375,-1.534,-1.5311,-1.5288,-1.5254,-1.523,-1.5203,-1.5151,-1.5134,-1.5129,-1.5057,-1.5026,-1.4983,-1.498,-1.4964,-1.4955,-1.4957,-1.4942,-1.4941,-1.494,-1.4933,-1.4932,-1.4951,-1.4951,-1.4951,-1.4951,0,-1.5398,-1.5368,-1.5355,-1.5304,-1.528,-1.5254,-1.5213,-1.5192,-1.517,-1.5142,-1.5103,-1.5065,-1.5022,-1.501,-1.4989,-1.4964,-1.4961,-1.495,-1.494,-1.4941,-1.4935,-1.4932,-1.4953,-1.4953,-1.4952,-1.4952,0,0,-1.5425,-1.5354,-1.535,-1.5325,-1.5273,-1.5248,-1.522,-1.5178,-1.5159,-1.5124,-1.5097,-1.505,-1.5037,-1.5012,-1.4987,-1.4969,-1.496,-1.4959,-1.4957,-1.4959,-1.4927,-1.4936,-1.4934,-1.4947,-1.4947,-1.4946,-1.493,0,-1.542,-1.5368,-1.5334,-1.5295,-1.5265,-1.5232,-1.5206,-1.5171,-1.5143,-1.5112,-1.5081,-1.5047,-1.5035,-1.5018,-1.5,-1.4966,-1.4953,-1.4966,-1.492,-1.4919,-1.4931,-1.4931,-1.494,-1.4927,-1.4928,-1.4927,-1.4927,0,-1.5408,-1.5372,-1.533,-1.5279,-1.5265,-1.5243,-1.52,-1.5173,-1.513,-1.5111,-1.5081,-1.5055,-1.5022,-1.5016,-1.4967,-1.4977,-1.4956,-1.4936,-1.4935,-1.4928,-1.4923,-1.4923,-1.4922,-1.492,-1.4923,-1.4923,-1.4924,0,-1.5429,-1.5371,-1.5337,-1.5318,-1.5258,-1.5242,-1.5216,-1.5174,-1.515,-1.5113,-1.5096,-1.5056,-1.5033,-1.5001,-1.4964,-1.4964,-1.4919,-1.491,-1.49,-1.4901,-1.4892,-1.4893,-1.4887,-1.4881,-1.4881,-1.4881,-1.4881,0,-1.5427,-1.5402,-1.5346,-1.5325,-1.5295,-1.5256,-1.5227,-1.5198,-1.516,-1.5132,-1.5101,-1.5075,-1.5028,-1.4996,-1.4966,-1.4929,-1.492,-1.4902,-1.4894,-1.4904,-1.4906,-1.4889,-1.4888,-1.488,-1.488,-1.488,-1.488,0,-1.5446,-1.5408,-1.5368,-1.5314,-1.53,-1.528,-1.5232,-1.521,-1.518,-1.5144,-1.5133,-1.5085,-1.5045,-1.5005,-1.4952,-1.4932,-1.4895,-1.4885,-1.4909,-1.4905,-1.4896,-1.4897,-1.4878,-1.4872,-1.4872,-1.4872,-1.4872,0,-1.5446,-1.5426,-1.5369,-1.5348,-1.5322,-1.5289,-1.5264,-1.5224,-1.5199,-1.5148,-1.5131,-1.5089,-1.5052,-1.499,-1.4949,-1.4907,-1.4895,-1.4891,-1.4889,-1.4898,-1.4893,-1.4894,-1.4891,-1.4893,-1.4893,-1.4893,-1.4893,0,-1.545,-1.5432,-1.5397,-1.5355,-1.5326,-1.5292,-1.5255,-1.524,-1.5192,-1.5165,-1.5124,-1.5096,-1.504,-1.4997,-1.495,-1.4922,-1.4899,-1.4894,-1.4889,-1.4899,-1.4912,-1.4903,-1.4911,-1.4895,-1.4895,-1.4895,-1.4894,-1.4894,-1.5459,-1.5438,-1.5394,-1.5356,-1.5324,-1.5291,-1.5266,-1.5232,-1.5197,-1.5149,-1.5126,-1.5084,-1.504,-1.4974,-1.4946,-1.4911,-1.4905,-1.4899,-1.4897,-1.4895,-1.4896,-1.4919,-1.4903,-1.4902,-1.4902,-1.4902,-1.4902,0,-1.5459,-1.5429,-1.5394,-1.5344,-1.5313,-1.5295,-1.5253,-1.5228,-1.5192,-1.5153,-1.5117,-1.5068,-1.5026,-1.4982,-1.4937,-1.4917,-1.4905,-1.4906,-1.4907,-1.49,-1.4905,-1.4913,-1.4917,-1.4917,-1.4917,-1.4917,-1.4917,-1.4917,-1.5456,-1.542,-1.5395,-1.5342,-1.5311,-1.527,-1.5247,-1.5215,-1.5183,-1.513,-1.5095,-1.5066,-1.5024,-1.4975,-1.4935,-1.4923,-1.4907,-1.4911,-1.4895,-1.4901,-1.49,-1.4899,-1.4906,-1.4908,-1.4908,-1.4893,-1.4892,-1.4892]},{"header":{"parameterUnit":"m.s-1","parameterCategory":1,"la1":30.2991,"la2":30.254,"lo1":-89.0895,"lo2":-89.0444,"dy":0.0017,"dx":0.0017,"nx":28,"ny":28,"refTime":"2024-12-05T03:00:00:Z","depth":0,"parameterNumber":3,"parameterNumberName":"V-component_of_WINDS"},"data":[0,0,0,0,0,0,0,0,0,0,0,0,0,0,0,0,0,0,0,0,0,0,0,0,0,0,0,0,0,0,0,0,0,0,0,0,0,0,0,0,0,0,0,0,0,0,0,0,0,0,0,0,0,0,0,0,0,0,0.5925,0.5925,0,0.591,0.591,0.5909,0.5829,0.5828,0.5826,0.5824,0.5809,0.5811,0.5812,0,0,0,0,0,0,0,0,0,0,0,0,0,0.589,0.5891,0.5925,0.5925,0.5925,0.591,0.591,0.5909,0.583,0.5827,0.5825,0.5823,0.5809,0.581,0.5812,0,0,0,0,0,0,0,0,0,0,0,0,0,0.5893,0.5891,0.5925,0.5883,0.5879,0.591,0.591,0.5909,0.583,0.5827,0.5825,0.5822,0.5808,0.581,0.5812,0.5882,0,0,0.5819,0.582,0,0,0,0,0,0,0,0,0.5893,0.5894,0.589,0.5886,0.5882,0.5869,0.5892,0.59,0.5831,0.5849,0.5824,0.582,0.5831,0.5831,0.5835,0.5882,0.5881,0.5819,0.582,0.5821,0.5822,0,0,0,0,0,0,0,0.5893,0.5895,0.5919,0.589,0.5885,0.5867,0.5864,0.5893,0.5856,0.5847,0.5841,0.5841,0.5829,0.5833,0.5834,0.5881,0.5819,0.5821,0.5822,0.5823,0.5991,0.5994,0,0,0,0,0,0,0.5898,0.5895,0.5919,0.5918,0.588,0.587,0.5866,0.5876,0.5856,0.585,0.5843,0.5837,0.5831,0.5832,0.5833,0.5918,0.5821,0.5823,0.5824,0.5988,0.5992,0.5995,0,0,0,0,0,0,0.5898,0.5901,0.592,0.5905,0.5906,0.5873,0.5884,0.5877,0.5881,0.5853,0.5846,0.5854,0.5829,0.583,0.5872,0.5916,0.5824,0.5826,0.5984,0.5989,0.5994,0.6086,0,0,0,0,0,0,0.5897,0.5901,0.5926,0.5906,0.5907,0.5958,0.5887,0.5879,0.5885,0.5877,0.5861,0.5856,0.5827,0.5869,0.5874,0.5918,0.5827,0.598,0.5986,0.5992,0.6079,0.6094,0.6106,0,0,0,0,0,0.5896,0.5952,0.5928,0.5931,0.5938,0.5961,0.5961,0.5926,0.5888,0.5915,0.5897,0.5856,0.5911,0.5874,0.5879,0.5924,0.5977,0.5985,0.5992,0.6073,0.6091,0.6106,0,0,0,0,0,0,0.5976,0.5948,0.5921,0.5972,0.597,0.5947,0.5978,0.5945,0.5953,0.5945,0.5902,0.5899,0.5949,0.594,0.59,0.5994,0.5937,0.5946,0.5998,0.6014,0.6028,0.603,0.5829,0,0,0,0,0,0.6,0.6021,0.5995,0.6042,0.6043,0.6011,0.602,0.5993,0.5989,0.5988,0.5973,0.5971,0.5989,0.6,0.6014,0.6077,0.6076,0.6111,0.6124,0.6136,0.6144,0.6183,0.62,0.6019,0.6019,0.6019,0,0,0.6049,0.6036,0.6051,0.6058,0.6053,0.6078,0.6011,0.6037,0.6056,0.5992,0.6032,0.6022,0.6017,0.6072,0.6095,0.6066,0.6194,0.6145,0.6154,0.6157,0.6192,0.6209,0.6224,0.6024,0.6023,0.6022,0,0,0.6152,0.6142,0.6183,0.6181,0.6175,0.6154,0.6165,0.6148,0.614,0.6179,0.6133,0.6155,0.6184,0.6184,0.6188,0.6297,0.6262,0.6303,0.6374,0.6412,0.6426,0.6439,0.6482,0.6498,0.6311,0.6311,0.6311,0,0.6214,0.6247,0.6209,0.6241,0.6247,0.6191,0.6235,0.6234,0.6233,0.624,0.6207,0.6246,0.6239,0.6295,0.6323,0.6326,0.634,0.6305,0.6427,0.6439,0.6451,0.6492,0.6507,0.6317,0.6316,0.6315,0.6315,0,0.6326,0.6351,0.6385,0.6387,0.6397,0.6434,0.6404,0.6419,0.6393,0.6377,0.6421,0.6411,0.6424,0.6435,0.6409,0.649,0.6473,0.6435,0.6377,0.6474,0.6512,0.6527,0.6324,0.6322,0.6321,0.6319,0,0,0.6477,0.6461,0.6474,0.6477,0.6469,0.6488,0.6525,0.6538,0.6555,0.6557,0.6589,0.6617,0.6584,0.6589,0.6562,0.6595,0.6689,0.6553,0.6553,0.6583,0.6784,0.6815,0.6833,0.6665,0.6668,0.667,0.6785,0,0.6578,0.664,0.6609,0.6675,0.67,0.665,0.6683,0.6683,0.667,0.6691,0.6676,0.6699,0.665,0.6654,0.6684,0.6671,0.6729,0.6662,0.6698,0.67,0.6703,0.6852,0.6884,0.6994,0.68,0.6802,0.6804,0,0.6704,0.6714,0.6784,0.6776,0.6785,0.6815,0.6829,0.6848,0.6849,0.6837,0.6846,0.6813,0.6852,0.6795,0.685,0.6806,0.6819,0.6815,0.6819,0.6823,0.6759,0.6864,0.7027,0.7045,0.6826,0.6824,0.6822,0,0.6813,0.6843,0.6891,0.6894,0.6884,0.6908,0.6905,0.6903,0.6915,0.6927,0.6935,0.6951,0.6961,0.6976,0.695,0.691,0.7011,0.695,0.7006,0.7007,0.7031,0.703,0.7203,0.7035,0.7034,0.7034,0.7034,0,0.6931,0.6977,0.694,0.6969,0.702,0.6985,0.7038,0.7029,0.7029,0.7058,0.7015,0.7043,0.7006,0.7032,0.7013,0.7065,0.7068,0.7063,0.7058,0.7069,0.707,0.7078,0.7071,0.7038,0.7037,0.7037,0.7036,0,0.7061,0.7038,0.7087,0.7075,0.7074,0.7113,0.7104,0.7132,0.7118,0.7155,0.7162,0.714,0.7169,0.7145,0.7172,0.7159,0.723,0.7212,0.723,0.7226,0.7285,0.7282,0.7471,0.7496,0.7309,0.7311,0.7312,0,0.7139,0.7174,0.7168,0.7184,0.7185,0.7211,0.7225,0.7193,0.7209,0.7216,0.7244,0.727,0.7288,0.7338,0.7325,0.7347,0.7332,0.7397,0.7335,0.7347,0.7338,0.7338,0.7344,0.741,0.7413,0.7414,0.7416,0,0.7283,0.7271,0.7291,0.731,0.7327,0.734,0.7349,0.7366,0.7333,0.7354,0.7384,0.7399,0.7429,0.7456,0.7475,0.7474,0.7442,0.7436,0.7451,0.7463,0.7474,0.7474,0.7268,0.7432,0.743,0.7429,0.7428,0.7427,0.7392,0.7422,0.7424,0.745,0.7455,0.7466,0.7493,0.7484,0.7508,0.753,0.751,0.7547,0.7552,0.7574,0.7579,0.7609,0.7582,0.7603,0.7609,0.7615,0.7626,0.7467,0.7612,0.7611,0.7611,0.761,0.761,0,0.7537,0.7536,0.756,0.7577,0.7598,0.7565,0.7575,0.7596,0.763,0.7637,0.7657,0.7694,0.7722,0.7713,0.7739,0.7766,0.7752,0.7774,0.7773,0.7775,0.7646,0.7632,0.7785,0.7785,0.7785,0.7785,0.7785,0.7785,0.7615,0.7666,0.7656,0.7711,0.771,0.7746,0.7756,0.7767,0.7774,0.7817,0.784,0.7834,0.7837,0.7863,0.7889,0.7886,0.7899,0.7928,0.792,0.78,0.7783,0.7767,0.7754,0.793,0.793,0.8047,0.8048,0.8049]}]]